CZ-3C DEB, 40862

Orbit data source: Space-Track

CZ-3C DEB, 40862 is space debris in HEO originally from a launch on Fri, 24 Feb 2012 UTC launched from the Xichang Space Center, China (XSC). Debris objects in space refer to the collection of defunct objects orbiting the Earth. Examples of debris include non-operational satellites, rocket bodies, and fragments generated from explosions, collisions, or faulty payload assembly.

Loading next visibility...
Identifier
40862, 2012-008AC
Orbit
HEO
Country
Flag of CNCN / PRC
Related business
Manufacturer
CALT
Mission
Spacecraft
Bus & Motor
Unknown
Mass
Unknown
Launch date (UTC)
2012-02-24 (14 years ago)
Launch vehicle
Unknown
Launch site
Xichang Space Center, China (XSC)
Object type
Payload
Rocket body
Debris
Shape & HBR
Unknown
Radar Cross Section
Medium (>0.1 m² and <1 m²)

Expand to show TLE details & history
Last TLE update: 6 days ago

TLE from 6 days ago
0 CZ-3C DEB
1 40862U 12008AC  26197.09650876  .00000203  00000-0  61183-2 0  9993
2 40862  18.3037 132.7854 7281213  58.7068 352.3822  2.07959122    15
Epoch: 2026-07-16T02:18Z
TLE epoch observation values (Epoch: 2026-07-16T02:18:58.356Z)
Latitude
0.00011°
Longitude
164.00166°
Altitude
2,486.583 km
Speed
8.634 km/s
True Right ascension
08h 50m 45s
True Declination
0° 00' 00"
Sunlit
Object was in daylight at epoch
Visualization orbit readout
Latitude
Unknown
Longitude
Unknown
Altitude
Unknown
Speed
Unknown
Apparent Right ascension
Unknown
Apparent Declination
Unknown
Sunlit
N/A
Visualization observer readout
Local Sidereal Time
18:18:00
Azimuth
Unknown
Elevation
Unknown
Doppler factor
Unknown
Orbital elements
Apogee altitude
38,434.41 km
Perigee altitude
672.049 km
Semi-major axis
25,931.367 km
Eccentricity
0.72812
Inclination
18.3037°
RAAN
132.7854°
Arg. of periapsis
58.7068°
True anomaly
300.13909°
Mean anomaly
352.3822°
Eccentric anomaly
334.27293°
Mean motion
0.51976 °/min
Orbital period
692.62 mins
BSTAR
0.0061183
Loading maneuver chart data...
Computing Atmospheric mass density...
Loading historical data...
Loading historical data...
Loading historical data...
Loading historical data...
Loading historical data...
Loading historical data...
Loading historical data...

Documentation

Showing up to 5 results
|